Starlink 33630

operational
NORAD ID: 63477 Int'l Des: 2025-070 Owner: SPXS Country: US Constellation: starlink
LEOCIRCULAR

Über Starlink 33630

Beschreibung wird geladen...

Live-Position

3D-Globus wird geladen...

Nächste Überflüge

Höhenverlauf

Altitude vs Time

uPlot chart will show altitude changes over time

Zweizeiliger Elementsatz

1 63477U 25070T 25355.00368421 .00027249 00000-0 99574-3 0 9996
2 63477 43.0003 340.5874 0001970 289.9253 70.1386 15.27590040 40984
Epoch: 21. Dez. 2025 • Age: 10 hours

Aktueller Status

Höhe 487.0 km
Geschwindigkeit 7.63 km/s
Subsatellitenpunkt 41.08°N, 149.85°W
Startdatum 6. Apr. 2025
Alter 0.7 years
Typ internet

Technische Details

Klassifizierung Payload
Masse 575.00 kg
Trockenmasse 530.00 kg
Gesamtmasse 575.00 kg
Länge 0.30 m
Durchmesser 4.10 m
Spannweite 29.00 m
Form Box + pan
Hersteller SPXS
Bus-Typ Starlink V2MO
Phasenstatus In Orbit
Besitzer/Staat SPXS/US

Große Konstellationen

Loading constellations...